NOAA 16 DEB, 41362

Orbit data source: Space-Track

NOAA 16 DEB, 41362 is space debris in SSO originally from a launch on Thu, 21 Sep 2000 UTC launched from the Air Force Western Test Range (AFWTR). Debris objects in space refer to the collection of defunct objects orbiting the Earth. Examples of debris include non-operational satellites, rocket bodies, and fragments generated from explosions, collisions, or faulty payload assembly.

Loading next visibility...
Identifier
41362, 2000-055JF
Orbit
SSO
Country
Flag of USUS
Related business
Manufacturer
Unknown
Mission
Spacecraft
Bus & Motor
Unknown
Mass
Unknown
Launch date (UTC)
2000-09-21 (25 years ago)
Launch vehicle
Unknown
Launch site
Air Force Western Test Range (AFWTR)
Object type
Payload
Rocket body
Debris
Shape & HBR
Unknown shape, 0.1 m
Radar Cross Section
Small (<0.1 m²)

Expand to show TLE details & history
Last TLE update: 1 day ago

TLE from 1 day ago
0 NOAA 16 DEB
1 41362U 00055JF  26037.05894941  .00016064  00000-0  34112-2 0  9994
2 41362  98.9593 251.6458 0031849  50.5274 309.8733 14.58869425523724
Epoch: 2026-02-06T01:24Z
TLE epoch observation values (Epoch: 2026-02-06T01:24:53.229Z)
Latitude
0.00004°
Longitude
94.22174°
Altitude
685.38 km
Speed
7.521 km/s
True Right ascension
16h 46m 34s
True Declination
0° 00' 00"
Sunlit
Object was in daylight at epoch
Visualization orbit readout
Latitude
Unknown
Longitude
Unknown
Altitude
Unknown
Speed
Unknown
Apparent Right ascension
Unknown
Apparent Declination
Unknown
Sunlit
N/A
Visualization observer readout
Local Sidereal Time
14:02:53
Azimuth
Unknown
Elevation
Unknown
Doppler factor
Unknown
Orbital elements
Apogee altitude
716.47 km
Perigee altitude
671.422 km
Semi-major axis
7,072.083 km
Eccentricity
0.00318
Inclination
98.9593°
RAAN
251.6458°
Arg. of periapsis
50.5274°
True anomaly
309.59249°
Mean anomaly
309.8733°
Eccentric anomaly
309.73297°
Mean motion
3.64941 °/min
Orbital period
98.65 mins
BSTAR
0.0034112
Loading maneuver chart data...
Computing Atmospheric mass density...
Loading historical data...
Loading historical data...
Loading historical data...
Loading historical data...
Loading historical data...
Loading historical data...
Loading historical data...

Documentation

Showing up to 5 results
|